{"data":{"norad_id":63351,"intl_designator":"2025-061A","name":"LEMUR-2-UNTITLED-SC","alt_names":[],"object_type":"PAYLOAD","status":"ACTIVE","operator":null,"country":"US","launch_date":"2025-03-26","launch_site_code":"RLLB","launch_vehicle":null,"mission":null,"orbit_class":"UNKNOWN","rcs_meters":null,"size_class":null,"mass_kg":null,"dimensions":null,"purposes":["earth_obs"],"wikipedia_slug":null,"has_3d_model":false,"image_url":null,"decayed_at":null,"tle_current":{"epoch":"2026-05-25T05:04:43.876416Z","epoch_age_seconds":56783,"freshness":"FRESH","line1":"1 63351U 25061A   26145.21161894  .00003799  00000+0  21640-3 0  9995","line2":"2 63351  97.5625 120.7463 0018478 350.1487   9.9379 15.13285481 64110","mean_motion":15.13285481,"eccentricity":0.0018478,"inclination_deg":97.5625,"raan_deg":120.7463,"arg_perigee_deg":350.1487,"mean_anomaly_deg":9.9379,"bstar":0.0002164,"rev_number":6411,"period_min":95.15719393861,"perigee_km":513.43079396521,"apogee_km":538.94641967777,"semimajor_km":6904.3256068215,"source":"CELESTRAK","updated_at":"2026-05-25T13:38:13.540332Z"}}}